Regional Weather Roundup
Issued by NWS

Home | Current Version | Previous Version | Text Only | Print | Product List | Glossary Off
Versions: 1 2 3 4 5 6 7 8 9 10 11 12 13 14 15 16 17 18 19 20 21 22 23 24 25 26 27 28 29 30 31 32 33 34 35 36 37 38 39 40 41 42 43 44 45 46 47 48 49 50

000
ASUS43 KLOT 030212
RWRIL

ILLINOIS REGIONAL WEATHER ROUNDUP
NATIONAL WEATHER SERVICE CHICAGO/ROMEOVILLE IL
800 PM CST FRI DEC 02 2016

NOTE: "FAIR" INDICATES FEW OR NO CLOUDS BELOW 12,000 FEET WITH NO
SIGNIFICANT WEATHER AND/OR OBSTRUCTIONS TO VISIBILITY.

* THESE STATIONS ARE NOT UNDER NWS QUALITY CONTROL. THEY ALSO MAY NOT
  REPORT WEATHER SUCH AS PRECIPITATION OR FOG.

ILZ001-002-007-009-015-016-024-030300-
NORTHWEST ILLINOIS

CITY           SKY/WX    TMP DP  RH WIND       PRES   REMARKS
MOLINE         CLOUDY    36  25  64 NW8       30.33R WCI  30
STERLING*      CLOUDY    35  25  66 NW10      30.32R WCI  27
SAVANNA*       CLOUDY    34  26  70 W6        30.32R WCI  29
$$

ILZ003-004-008-010-011-017-018-030300-
NORTH CENTRAL ILLINOIS

CITY           SKY/WX    TMP DP  RH WIND       PRES   REMARKS
ROCKFORD       CLOUDY    33  24  69 W8        30.32R WCI  26
FREEPORT*      CLOUDY    32  23  69 NW6       30.32R WCI  26
ROCHELLE*      CLOUDY    33  26  76 NW7       30.31R WCI  27
DE KALB*       CLOUDY    33  25  72 NW7       30.30S WCI  27
$$

ILZ005-006-012>014-019>023-030300-
NORTHEAST ILLINOIS

CITY           SKY/WX    TMP DP  RH WIND       PRES   REMARKS
CHICAGO-OHARE  CLOUDY    35  25  66 NW8       30.29R WCI  29
CHICAGO-MIDWAY CLOUDY    38  26  62 W8        30.30R WCI  32
AURORA         CLOUDY    35  26  69 NW8       30.31R WCI  29
LANSING*       CLOUDY    37  29  73 W7        30.30R WCI  31
JOLIET*        CLOUDY    37  28  69 NW6       30.31S WCI  32
WAUKEGAN       CLOUDY    34  23  64 W5        30.29R WCI  30
DUPAGE AIRPORT CLOUDY    34  24  67 NW8       30.29R WCI  27
KANKAKEE*      CLOUDY    37  32  79 NW5       30.31S WCI  34
WHEELING       CLOUDY    35  24  64 NW5       30.31R WCI  31
MORRIS*        CLOUDY    35  30  80 N3        30.30S
ROMEOVILLE*    CLOUDY    35  29  79 NW8       30.30S WCI  28
NORTHERLY ISL    N/A     38  27  65 NW10        N/A  WCI  31
$$

LMZ740>746-030300-
SOUTHERN LAKE MICHIGAN

STATION/POSITION SKY/WX   TEMP    WIND        PRES    VSBY  WAVE
                          AIR SEA DIR/SP/G                  HT/PER
                          (F)     (DEG/KT/KT) (MB)    (MI)  (FT/S)
SOUTHERN BUOY              38 49  310/ 12/ 16 1024.6          2/ 5
HARRISON CRIB              38     320/ 10/ 11   N/A
BURNHAM HARBOR             37     320/  3/  9   N/A
CALUMET HARBOR             38     260/  5/  8 1025.2R
BURNS HARBOR               40     290/ 13/ 18 1025.4
MICHIGAN CITY              38     310/ 13/ 15   N/A
$$

ILZ025>027-034>036-040-047-049-050-058-095>099-030300-
WEST-CENTRAL ILLINOIS

CITY           SKY/WX    TMP DP  RH WIND       PRES   REMARKS
QUINCY         CLOUDY    38  32  79 N5        30.33R WCI  34
GALESBURG*     CLOUDY    36  29  78 NW3       30.34R
MACOMB*        CLOUDY    38  33  84 N3        30.36R
JACKSONVILLE*  CLOUDY    37  32  81 W3        30.34R
PITTSFIELD*    PTCLDY    34  30  85 W3        30.34S
$$

ILZ028>032-037-038-041>044-048-051>054-059>061-030300-
CENTRAL ILLINOIS

CITY           SKY/WX    TMP DP  RH WIND       PRES   REMARKS
PONTIAC        CLOUDY    38  34  83 NW7       30.32R WCI  33
BLOOMINGTON    CLOUDY    38  30  73 NW10      30.32R WCI  31
DECATUR        CLOUDY    41  32  70 W3        30.33R
PEORIA         CLOUDY    38  28  67 NW7       30.34R WCI  33
LACON*         CLOUDY    36  29  74 NW7       30.33R WCI  31
LINCOLN*       CLOUDY    40  34  78 NW3       30.33R
SPRINGFIELD    CLOUDY    41  34  76 NW3       30.34R
TAYLORVILLE    CLOUDY    38  33  84 W3        30.33R
$$

ILZ033-039-045-046-055>057-062-063-030300-
EAST-CENTRAL ILLINOIS

CITY           SKY/WX    TMP DP  RH WIND       PRES   REMARKS
CHAMPAIGN      CLOUDY    39  33  79 NW6       30.32R WCI  35
RANTOUL*       CLOUDY    40  35  84 W5        30.31S
MATTOON        CLOUDY    38  32  79 W5        30.32R WCI  34
PARIS*         CLOUDY    38  35  89 W6        30.32S WCI  33
$$

ILZ079-100>102-030300-
SOUTHWEST ILLINOIS

CITY           SKY/WX    TMP DP  RH WIND       PRES   REMARKS
ALTON          PTCLDY    36  30  80 NE3       30.35R
BELLEVILLE     PTCLDY    34  30  87 CALM      30.34R
CAHOKIA*       PTCLDY    34  29  82 CALM      30.34R
SPARTA*        PTCLDY    37  31  78 NE3       30.35S
$$

ILZ064>066-069>071-074>076-080>082-084>086-088>090-092>094-030300-
SOUTH-CENTRAL ILLINOIS

CITY           SKY/WX    TMP DP  RH WIND       PRES   REMARKS
CARBONDALE     CLOUDY    35  30  82 N5        30.34R WCI  31
CAIRO*         CLEAR     38  31  76 NE5       30.33R WCI  34
EFFINGHAM*     CLOUDY    36  33  91 CALM      30.35R
MARION         PTCLDY    36  32  87 N5        30.35S WCI  32
CENTRALIA*     CLEAR     35  32  90 CALM      30.34S
SALEM*         CLEAR     36  32  85 CALM      30.35R
METROPOLIS*    CLEAR     36  30  78 CALM      30.34R
$$

ILZ067-068-072-073-078-083-087-091-030300-
SOUTHEAST ILLINOIS

CITY           SKY/WX    TMP DP  RH WIND       PRES   REMARKS
LAWRENCEVILLE  CLOUDY    40  32  73 NW3       30.34S
FLORA*         PTCLDY    37  31  81 W3        30.35R
FAIRFIELD*     PTCLDY    37  32  81 CALM      30.34R
HARRISBURG*    PTCLDY    37  31  80 N3        30.34F
ROBINSON*      CLOUDY    38  33  83 CALM      30.34S
CARMI*         PTCLDY    32  30  93 CALM      30.35R
$$

ABBREVIATIONS USED IN REMARKS
   TC - TEMPERATURE IN CELSIUS
  WCI - WIND CHILL INDEX
   HX - HEAT INDEX
  VSB - VISIBILITY
$$





USA.gov is the U.S. government's official web portal to all federal, state and local government web resources and services.